Lapse_Rate
6.5 6.5 6.5 6.5 6.5 6.5 6.5 6.5 6.5 6.5 6.5 6.5 6.5 6.5 6.6 7.1 7.4 7.5 7.6 7.8 7.3 6.3 6.3 7.4 6.5 5.9 4.9 5.4 6.3 5.5 5.2 5.1 5.3 5.1 5.3 4.6 4.1 4.2 4.8 4.4 4.4 4.6 4.5 4.9
6.5 6.5 6.5 6.5 6.5 6.5 6.5 6.5 6.5 6.5 6.5 6.5 6.8 7.0 7.0 7.2 7.5 7.4 7.7 7.9 8.2 8.2 7.4 7.1 5.2 3.9 4.9 5.9 5.9 5.5 4.7 5.6 5.9 5.6 5.5 5.4 5.5 6.8 6.4 5.8 4.2 3.6 3.9 5.3
6.5 6.5 6.5 6.5 6.5 6.5 6.5 6.5 6.5 6.5 6.5 6.6 6.5 6.9 7.0 7.1 7.5 7.6 7.9 8.1 8.3 8.4 8.1 6.4 4.7 4.6 4.4 5.5 5.3 5.1 5.6 6.4 6.5 6.4 6.3 6.4 6.9 6.8 6.5 4.9 4.2 4.1 3.8 4.3
6.5 6.5 6.5 6.5 6.5 6.5 6.5 6.5 6.5 6.5 6.5 6.7 6.8 7.2 7.1 7.1 7.5 7.7 7.1 8.0 8.2 8.2 7.9 5.7 4.4 4.5 5.6 6.2 6.2 5.8 5.6 6.8 7.2 7.1 6.9 6.7 6.6 7.2 6.9 5.9 4.7 3.5 3.2 3.5
6.5 6.5 6.5 6.5 6.5 6.5 6.5 6.5 6.6 6.5 6.7 6.9 7.2 7.1 6.7 7.9 8.0 8.1 7.6 7.9 6.6 7.6 6.1 5.3 5.0 6.1 6.4 6.0 5.9 5.7 6.1 6.8 6.8 6.7 6.8 6.7 6.7 7.1 6.7 5.4 4.6 4.2 3.6 3.5
6.5 6.5 6.5 6.5 6.5 6.2 6.2 6.5 6.8 6.8 6.8 7.0 7.2 6.5 6.4 7.2 7.9 7.7 7.3 5.8 5.7 5.2 4.9 4.8 6.6 7.2 6.2 7.0 6.6 6.5 6.5 5.7 6.0 5.4 5.0 4.7 4.8 6.0 5.9 5.3 5.0 5.1 4.4 3.9
6.5 6.5 6.5 6.5 6.1 5.9 6.5 6.5 6.6 6.6 7.2 7.2 6.6 6.3 6.9 7.8 6.7 6.1 5.8 5.1 4.5 3.8 5.4 6.4 7.0 5.9 5.5 6.0 5.5 6.0 5.6 5.1 4.8 4.9 4.6 4.5 4.5 4.5 4.5 4.9 4.5 3.9 3.9 4.0
6.5 6.5 6.5 6.3 6.1 6.5 6.1 5.5 6.3 6.7 7.4 7.4 6.7 6.3 7.3 7.0 6.6 6.7 6.4 6.0 6.1 6.2 6.5 6.5 6.5 6.9 7.1 5.8 6.0 5.2 5.0 4.7 4.3 4.2 4.6 4.3 3.6 3.9 3.9 3.8 3.9 3.9 3.6 3.9
6.5 6.5 6.1 5.2 5.1 5.2 5.7 6.3 6.5 6.5 6.1 7.0 6.1 6.3 6.8 6.9 6.4 6.4 6.5 6.6 7.1 6.1 5.8 5.7 5.7 5.7 5.5 5.1 5.7 5.3 4.8 3.7 4.3 4.7 4.5 4.2 3.4 3.6 3.5 3.8 4.1 4.7 4.7 4.4
6.5 6.5 6.3 6.4 6.6 6.2 5.8 5.8 6.2 5.9 7.1 6.0 5.7 6.3 6.4 6.6 6.5 6.9 7.0 7.0 7.2 6.7 6.2 6.5 6.6 6.4 5.4 4.7 4.1 3.1 3.1 4.2 5.7 5.6 5.1 4.8 4.8 5.5 5.3 5.0 5.4 5.9 5.7 5.5
6.5 6.3 6.6 6.8 5.8 5.3 5.1 4.8 5.2 7.7 6.6 6.7 6.5 6.1 6.5 6.4 6.3 6.6 6.5 6.4 6.4 6.1 6.0 5.4 5.0 4.7 5.1 4.9 5.1 5.6 6.1 6.8 6.6 6.2 6.4 6.5 7.0 7.2 6.5 6.8 7.8 7.0 7.8 6.9
6.5 5.0 4.6 5.1 4.4 4.5 4.4 4.8 5.6 6.6 7.1 5.7 6.3 5.4 5.5 5.3 5.7 5.5 5.3 5.6 5.4 5.4 4.4 4.0 3.8 3.9 4.5 5.4 5.7 5.6 6.4 6.6 6.6 6.7 6.7 7.4 7.8 7.4 8.2 6.9 6.2 7.0 8.0 7.7
2.9 4.4 3.2 3.0 4.4 5.6 5.8 6.7 6.0 5.5 5.6 5.3 4.9 5.2 5.1 4.8 5.0 5.1 5.2 5.3 4.1 2.5 2.4 2.5 3.0 3.5 4.5 5.5 5.6 5.7 5.7 6.2 6.1 6.4 6.4 6.2 6.2 5.9 4.8 5.7 5.9 5.2 5.2 4.9
3.4 2.9 4.0 5.6 4.0 6.3 6.8 6.7 6.4 6.0 5.8 5.9 4.9 4.6 4.6 4.2 4.6 4.1 3.6 2.9 2.4 2.0 1.8 1.8 2.9 4.3 4.9 4.9 5.4 5.5 5.6 5.5 5.2 5.3 5.1 4.8 4.6 4.8 4.7 4.1 3.2 3.0 3.7 3.8
4.2 3.6 2.0 3.2 5.3 6.7 7.0 7.0 6.8 6.8 6.1 5.0 4.6 3.7 4.0 2.8 3.5 2.4 1.5 0.9 0.4 0.6 1.1 1.7 3.0 4.1 5.2 5.6 5.2 5.1 5.2 4.9 4.7 4.5 4.6 4.6 4.7 4.5 4.4 4.0 3.5 3.0 2.0 1.4
3.3 3.9 4.1 4.2 5.5 6.9 6.8 6.5 6.6 5.8 4.7 4.6 4.3 3.4 3.3 2.6 2.6 1.5 0.9 0.9 2.5 1.0 1.9 1.7 3.1 4.8 5.7 5.0 4.7 4.5 4.4 4.2 4.1 4.1 3.9 3.5 3.6 3.5 3.2 2.9 2.6 2.4 2.0 1.5
1.0 3.7 4.8 5.2 5.8 6.6 6.6 6.8 6.6 6.1 4.9 4.3 3.8 3.4 2.6 1.4 1.8 2.1 0.7 0.1 2.3 2.9 3.1 3.1 2.3 3.2 5.2 4.9 4.4 4.3 4.1 3.9 3.2 3.4 3.3 3.2 2.8 2.4 2.7 2.4 2.3 2.2 2.3 2.0
-0.3 -0.2 2.9 5.1 5.9 6.0 6.3 6.4 6.2 4.2 3.8 3.0 2.4 2.2 1.7 1.9 1.5 0.9 0.6 1.5 1.6 1.6 3.1 3.3 3.7 4.4 4.4 4.5 4.0 3.7 3.4 3.3 3.1 2.8 2.6 1.9 2.1 2.2 1.9 1.8 1.7 1.4 1.3 1.5
0.3 0.9 3.9 6.0 5.9 5.8 6.1 5.1 2.1 2.3 2.6 2.6 2.8 2.2 1.6 -0.2 1.3 0.6 1.7 1.5 0.8 3.1 3.2 4.6 5.0 4.4 3.9 3.6 3.5 3.4 3.0 2.7 2.4 1.8 1.5 0.4 0.5 1.1 1.1 1.2 1.2 0.7 0.5 0.4
1.7 2.6 4.7 5.4 6.0 5.6 4.1 2.2 1.7 1.4 0.7 2.0 2.0 2.2 2.5 0.4 0.4 1.4 2.4 3.0 4.4 4.3 5.4 5.3 4.7 3.9 3.4 3.0 3.0 2.7 2.1 1.8 1.4 0.4 0.0 -0.1 -0.4 -0.5 0.2 -0.3 0.2 -0.2 -0.8 -0.6
1.9 1.8 2.3 3.9 4.4 1.7 0.5 0.3 1.4 1.3 -0.5 0.4 1.6 2.1 2.9 1.8 2.0 1.5 3.2 2.7 4.2 4.5 4.4 4.0 4.0 3.4 3.1 2.8 2.2 1.5 0.9 0.2 -0.1 -0.6 -0.9 -2.2 -2.4 -1.7 -2.5 -2.0 -1.3 -1.1 -1.5 -1.8
1.9 2.5 3.4 3.7 3.4 2.3 1.2 1.9 2.1 0.6 0.9 0.5 -0.1 1.2 1.9 2.8 2.0 2.5 1.8 3.0 2.6 2.7 3.2 3.0 2.7 2.6 2.4 2.2 1.3 0.1 0.5 0.0 -0.5 -0.5 -1.4 -2.1 -3.8 -5.7 -5.6 -2.8 -2.7 -2.0 -2.4 -2.9
3.0 3.7 4.0 4.3 4.8 4.8 4.6 4.0 0.8 1.5 0.6 0.1 0.0 2.6 4.4 4.0 3.9 3.0 1.7 2.3 2.3 2.0 2.6 2.0 1.9 2.0 1.7 0.7 -0.5 -1.4 -1.4 -2.1 -2.4 -3.1 -4.5 -6.9 -6.6 -7.2 -4.9 -3.7 -3.7 -4.6 -4.2 -4.3
3.5 4.1 4.8 5.8 5.8 5.9 5.1 4.3 4.1 3.5 0.9 1.3 0.3 -1.2 3.0 1.4 0.5 1.4 1.0 0.3 0.4 0.7 1.2 1.1 1.3 1.0 0.4 -0.8 -1.8 -3.0 -3.8 -5.0 -5.3 -6.8 -5.0 -4.6 -7.2 -6.5 -5.5 -5.8 -5.0 -4.8 -4.6 -4.9
3.8 4.0 5.2 5.9 5.9 5.0 4.7 3.8 4.2 4.3 4.3 4.7 4.2 3.1 3.9 2.8 0.7 0.0 -0.4 -0.3 0.8 0.9 -0.0 1.1 0.8 -0.0 -0.5 -1.3 -2.6 -3.7 -4.3 -3.1 -3.1 -3.0 -4.3 -6.1 -6.7 -6.6 -5.1 -4.6 -4.9 -4.7 -4.8 -5.4
2.9 3.1 3.5 4.4 4.1 3.4 3.0 3.2 2.9 3.6 3.8 2.3 1.1 -0.6 -0.9 0.3 0.1 -0.3 -0.6 -0.3 -0.3 -0.6 -1.1 -0.7 -0.2 -0.4 -1.0 -1.6 -1.9 -1.7 -1.6 -1.5 -1.3 -1.9 -2.3 -2.6 -2.3 -2.7 -2.8 -2.4 -2.8 -3.7 -4.5 -5.0
3.5 3.0 3.8 4.5 4.4 3.7 3.2 2.9 2.9 2.8 2.5 1.4 -0.2 -2.3 -1.5 -1.9 -2.2 -1.8 -3.3 -2.5 -3.6 -3.4 -2.2 -0.9 -0.3 -0.6 -1.1 -1.4 -1.1 -0.8 -0.3 -0.5 -0.6 -1.0 -1.1 -1.1 -1.1 -1.4 -1.7 -2.0 -2.4 -2.9 -3.5 -4.5
Wind_Speed
4 5 3 5 7 4 5 9 6 4 5 6 12 13 16 19 21 21 19 16 9 7 9 7 8 8 11 11 10 11 11 11 11 11 11 13 14 13 13 14 13 14 15 16
4 4 4 4 7 8 5 1 4 7 5 12 13 15 19 20 20 18 18 17 17 16 19 6 8 10 9 10 10 10 12 11 11 10 10 11 12 13 12 11 12 14 15 15
3 5 7 4 4 1 2 9 3 3 6 12 17 17 17 19 16 22 22 22 21 17 11 5 9 8 9 9 10 11 11 11 10 9 9 10 8 10 11 12 12 14 14 15
2 4 2 4 2 6 8 7 6 6 11 13 15 15 14 13 18 21 19 18 16 13 5 6 8 9 9 9 10 10 11 10 10 9 9 8 9 10 9 10 13 12 13 14
3 2 7 1 3 2 3 3 6 6 9 13 16 11 2 13 18 17 18 14 10 11 12 10 9 10 9 10 10 11 10 8 9 10 10 11 12 11 9 7 9 11 12 14
3 3 5 4 3 5 4 4 3 7 10 16 18 11 8 20 21 18 15 12 12 13 11 10 11 10 10 9 10 11 10 10 9 10 11 11 12 10 10 9 10 9 11 12
3 3 7 3 3 4 2 2 4 3 7 11 8 4 14 16 15 13 10 12 11 11 11 12 11 9 10 9 11 8 8 9 10 10 11 10 11 10 10 9 9 10 11 10
3 2 8 1 2 2 2 3 2 4 5 8 7 8 10 10 12 12 11 13 12 11 12 11 8 7 8 10 8 7 8 10 10 11 10 10 11 10 11 9 10 10 10 9
7 5 2 4 5 5 4 4 3 3 5 8 8 5 7 8 10 10 11 11 11 11 11 9 8 6 7 5 4 6 8 7 7 10 10 10 11 11 9 10 9 10 9 10
3 4 6 6 5 5 4 5 2 4 6 7 5 8 10 9 9 8 8 8 8 8 9 8 7 6 4 2 3 4 4 4 5 8 9 9 7 8 9 9 9 10 10 9
2 6 7 4 4 5 4 6 5 6 5 8 7 9 9 9 9 8 9 9 7 7 8 8 7 7 7 5 5 7 8 7 5 4 6 5 6 8 9 10 12 9 9 8
5 4 4 3 4 4 6 5 5 4 5 7 6 8 10 9 8 9 8 7 7 6 6 5 6 6 7 6 7 7 8 7 7 7 7 7 6 7 19 20 24 24 24 15
6 3 4 8 5 4 5 6 5 5 5 7 8 9 10 10 9 11 7 6 5 3 4 5 6 6 6 7 8 9 8 8 7 8 7 7 7 7 7 9 18 23 25 25
7 10 4 4 4 4 7 7 8 7 7 7 9 8 10 10 9 8 6 2 3 5 5 5 6 8 7 6 8 8 9 11 7 7 6 6 6 7 6 7 8 9 19 21
5 3 5 6 6 6 7 8 8 6 7 9 7 7 8 9 8 4 3 3 3 5 5 5 6 7 6 9 10 9 7 7 7 7 7 8 7 7 7 8 8 8 9 14
7 7 6 6 7 7 8 9 8 6 7 8 9 8 7 7 5 4 5 5 5 4 3 5 5 5 7 6 8 7 8 10 8 7 7 7 7 7 7 8 8 9 9 11
8 4 6 6 7 8 7 7 8 7 7 8 8 7 7 6 6 6 5 4 4 6 4 5 4 5 9 10 7 5 6 7 8 7 7 7 7 8 7 7 8 8 8 10
4 5 5 8 9 9 8 7 8 8 7 7 8 7 6 6 5 3 3 5 6 7 6 5 5 9 11 11 9 6 6 6 7 7 6 7 7 7 7 8 8 8 8 9
4 8 7 8 8 8 8 7 5 6 7 7 8 7 6 4 4 3 3 5 5 6 4 6 11 10 8 12 10 8 6 7 6 6 7 7 7 7 7 8 8 8 8 8
7 7 9 8 8 9 8 6 6 6 4 7 7 6 6 3 4 5 5 7 5 3 6 8 9 7 10 13 12 8 6 6 7 7 6 6 6 7 6 7 7 7 7 8
8 8 9 8 7 7 7 5 7 7 5 5 7 6 7 5 5 4 6 5 4 8 10 10 7 6 9 10 9 6 5 6 7 6 6 5 5 5 5 5 6 7 7 7
8 8 8 9 9 7 6 5 6 6 6 6 5 5 6 6 5 6 3 4 3 8 7 6 7 10 9 9 7 4 6 7 5 5 5 4 4 3 3 5 6 7 7 7
9 9 10 9 9 9 9 7 5 7 7 6 6 7 7 5 5 5 4 3 4 7 7 7 12 13 10 8 7 5 6 5 4 4 3 3 2 2 3 4 5 5 6 7
11 10 9 9 9 9 10 9 8 9 6 6 6 4 7 5 3 2 5 9 10 8 7 10 12 12 10 8 8 6 4 2 4 3 3 5 3 3 3 4 5 8 10 11
11 10 10 11 11 8 10 9 8 8 7 6 6 7 7 4 3 4 3 6 9 7 6 12 12 12 11 11 10 8 7 9 6 5 4 3 4 5 10 11 11 11 13 14
11 9 9 11 9 7 7 8 7 6 6 5 2 3 3 3 6 6 7 8 8 9 7 11 12 11 10 10 11 11 10 9 8 6 6 8 10 10 10 11 13 15 17 18
8 8 7 7 6 7 8 9 7 8 6 5 5 2 5 4 5 5 3 4 3 6 9 11 13 12 12 12 12 11 11 9 7 7 8 10 11 9 9 10 13 15 17 19
Wind_Direction
287 307 303 269 282 287 254 245 228 292 292 14 354 346 338 333 330 331 337 357 3 8 355 24 31 17 16 25 34 48 52 51 49 46 38 40 44 43 34 27 21 15 22 19
297 332 335 287 284 252 254 20 285 321 315 4 342 343 337 332 331 332 338 333 333 333 333 39 46 41 18 28 45 52 58 51 48 49 47 48 47 40 33 33 30 25 21 22
266 339 338 315 209 37 75 49 354 2 317 325 334 346 332 320 347 334 324 320 320 323 327 30 48 52 50 46 53 55 56 52 51 48 40 34 34 49 44 37 32 32 26 19
243 19 353 221 349 125 104 84 48 357 332 331 326 329 312 359 335 319 315 313 316 319 332 91 72 70 61 60 56 51 52 42 38 33 31 32 36 42 43 38 34 28 28 24
136 221 294 334 109 166 194 127 46 346 327 325 333 317 343 341 330 320 319 321 340 333 75 65 63 66 67 63 62 60 53 29 16 25 37 36 41 39 44 41 37 35 30 27
95 156 231 199 195 252 166 212 32 13 353 330 338 352 332 337 335 339 354 23 53 47 57 58 58 60 63 53 50 45 37 33 30 38 39 39 34 34 40 39 35 34 32 29
165 223 282 285 303 302 120 233 64 28 314 329 342 277 300 337 8 55 39 49 55 62 59 56 56 56 59 50 48 38 42 39 38 37 44 38 40 36 32 32 38 35 31 24
150 213 269 20 21 157 157 67 92 242 315 333 305 303 349 25 30 39 38 48 49 62 62 55 47 56 53 51 40 34 53 56 50 46 48 43 46 41 39 34 35 32 29 26
177 211 134 13 122 103 124 161 225 260 321 332 323 324 42 53 52 53 50 51 52 61 63 48 46 35 40 26 49 60 59 43 44 50 49 46 45 42 39 32 32 29 27 22
108 158 137 145 110 144 161 166 98 20 9 3 15 61 88 74 68 65 66 65 57 60 61 55 31 15 13 15 44 49 45 36 47 57 55 49 47 48 40 36 29 27 25 20
301 109 125 147 160 155 124 89 67 46 53 54 70 68 84 85 82 77 71 63 45 42 47 38 20 18 21 32 49 56 50 43 40 47 56 49 52 57 50 36 40 30 27 20
220 178 154 153 151 110 81 87 77 80 76 57 82 97 97 89 83 83 72 65 59 39 36 14 20 23 22 34 48 55 56 46 43 44 40 43 44 50 49 51 42 40 32 34
176 145 94 124 119 118 111 101 83 79 84 104 94 101 102 99 94 92 79 74 41 14 18 24 29 31 29 40 46 51 53 51 48 48 45 41 39 37 31 20 36 35 34 27
111 109 72 183 173 133 119 107 100 87 81 98 101 93 101 98 91 78 66 11 33 45 38 26 40 41 28 34 47 54 54 50 49 47 45 41 37 36 33 25 18 14 18 22
108 82 134 137 126 126 122 116 108 109 113 95 90 96 100 97 90 76 46 49 49 50 30 30 53 46 38 56 59 55 57 55 51 50 45 42 41 36 32 29 26 19 10 14
124 121 130 131 127 118 125 122 121 116 107 112 106 89 92 92 87 69 51 34 76 64 11 34 46 43 48 51 62 62 57 52 55 53 46 41 37 36 31 28 25 21 19 11
118 151 155 142 136 128 124 134 140 136 121 116 112 107 97 89 77 69 47 23 53 65 50 52 27 40 62 60 59 60 63 60 51 51 48 44 41 38 34 29 23 19 13 9
135 132 136 142 140 131 122 124 126 123 126 121 113 109 98 94 114 96 36 68 51 45 42 44 45 61 64 67 66 64 63 59 55 54 48 43 44 39 34 30 25 16 5 1
114 114 112 121 120 121 123 122 115 117 119 122 123 124 124 120 114 99 70 71 62 72 18 59 67 69 69 64 64 68 67 63 60 56 52 44 40 36 33 28 21 13 3 359
110 102 108 105 113 119 119 117 115 113 116 121 119 116 122 127 122 105 88 71 50 66 75 75 73 71 73 68 69 70 69 70 71 63 50 49 42 35 25 21 19 13 5 1
128 117 117 119 116 111 118 126 128 133 134 117 131 139 134 130 115 116 95 90 65 76 80 75 74 71 71 74 72 75 77 77 71 65 58 49 36 30 15 12 14 12 2 356
138 136 137 129 128 130 133 135 131 129 132 132 132 129 119 116 100 87 89 117 113 95 88 82 81 88 85 83 82 81 81 74 69 67 55 47 39 24 3 19 18 8 359 349
149 150 148 149 147 141 141 144 141 148 149 152 154 155 151 148 144 137 133 123 105 97 100 99 105 98 89 83 84 82 82 77 74 70 62 51 43 40 25 25 14 1 356 347
161 160 157 154 145 151 162 164 167 168 162 168 168 176 142 129 65 73 113 124 121 110 108 112 113 113 108 99 90 86 84 75 78 69 67 60 48 35 31 22 11 357 355 351
169 164 162 163 169 177 172 167 165 169 173 177 169 171 157 158 141 166 134 130 130 117 112 124 127 126 123 112 101 95 94 97 104 101 82 75 58 49 42 32 18 4 356 354
176 177 178 182 183 172 164 168 171 171 165 159 143 141 114 109 127 138 141 138 134 131 125 133 137 140 135 125 116 111 108 108 105 100 95 76 62 51 43 33 21 11 5 2
175 166 169 179 182 174 174 176 174 183 179 164 155 179 145 135 134 134 126 140 134 144 144 147 151 151 149 143 134 128 122 124 123 119 99 81 67 58 45 34 22 15 12 11